CZ-4B R/B

Satellite information

Favourite Embed

Satellite Type and Status

ROCKET BODYIN ORBIT

Key statistics

Satellite CZ-4B R/B at a glance.

Uptime

6312

Days in orbit

Revolutions

≈ 14.4

Per day

Orbit

SSO

Sun Synchronous Orbit

Inclination

98.9

Latest

Satellite identification and parameters

Extended collection of information and parameters for CZ-4B R/B.

Object identification

Identified? True

Debris? False

Object name: CZ-4B R/B

International designator: 2008-026B

Object number (NORAD): 32959

Object ID (CCSDS): 32959

Country: PEOPLES REPUBLIC OF CHINA (PRC)

Current information (Y/N): Y

RCS size: LARGE

Orbital parameters

Period: 99.802 minutes

Inclination: 98.8955 deg

SMA: 7127.199 km

Apoapsis: 798.65 km

Periapsis: 699.479 km

RAAN: 304.7692 deg

Eccentricy: 0.00695725

Argument of periapsis: 35.344 deg

Mean anomaly: 73.8457 deg

Mean motion: 14.42860663 rev/day

Mean motion (dot): 0.00000339 rev/day2

B* drag term: 0.00011308517 1/REarth

Two-line elements (TLE)

Creation date: Sept. 7, 2025, 3:09 a.m.

Reference frame: TEME

Reference center: EARTH

Epoch: Sept. 6, 2025, 5:56 p.m. UTC

TLE line 0: 0 CZ-4B R/B

TLE line 1: 1 32959U 08026B 25249.74738829 .00000339 00000-0 11309-3 0 9996

TLE line 2: 2 32959 98.8955 304.7692 0069573 35.3440 73.8457 14.42860663909208

Live tracking on map

Real-time ground track for satellite CZ-4B R/B.

In-orbit conjunctions

A list of the most updated potential collisions computed for object CZ-4B R/B.

Target Orbit TCA Probability of collision Miss distance Type
COSMOS 2251 DEB LEO 2025-04-13 00:29:05 0.000178145 355.0 (m) DEBRIS
CZ-4C DEB SSO 2024-12-23 23:16:41 0.0001152697 446.0 (m) DEBRIS
METEOR 2-7 DEB LEO 2024-11-08 08:07:15 0.0001229936 434.0 (m) DEBRIS

Associated space launch

Chinese 2nd generation polar orbiting meteorological satellite

CZ-4B R/B was lifted into orbit during the mission ‘Long March 4C | Feng Yun 3A’, on board a Long March 4C space rocket.

The launch took place on May 27, 2008, 3:02 a.m. from Launch Complex 7.

For more information about the launch, click the button.

Launch to space Long March 4C | Feng Yun 3A
Long March 4C | Feng Yun 3A

Agency: N/A

Status: Launch Successful

Launch date: May 27, 2008, 3:02 a.m. UTC

Rocket: Long March 4C

Launch pad: Launch Complex 7

Location: Taiyuan Satellite Launch Center, People's Republic of China

...

Latest news about this satellite

There are no fresh news available about this satellite. Check back as we update our databases every day.


Newsletter sign-up

Weekly statistics, charts and insights to help you stay on top of the space industry.